Tracking 20475 objects as of 27-Feb-2020
HD Live streaming from Space Station
objects crossing your sky now

INSAT 4A

Track INSAT 4A now!
INSAT 4A is classified as:


NORAD ID: 28911
Int'l Code: 2005-049A
Perigee: 36,089.9 km
Apogee: 36,104.5 km
Inclination: 0.6 °
Period: 1,451.6 minutes
Semi major axis: 42468 km
RCS: 12.5892 m2 (large)
Launch date: December 21, 2005
Source: India (IND)
Launch site: FRENCH GUIANA (FRGUI)
aabbcc
Your satellite tracking list
Your tracking list is empty




NASA's NSSDC Master Catalog

Two Line Element Set (TLE):
1 28911U 05049A   20057.52479715 -.00000216  00000-0  00000+0 0  9992
2 28911   0.6052 100.9954 0001716 247.4632 302.2007  0.99198991 51989
Source of the keplerian elements: AFSPC